Вернуться в каталог

SL-12 R/B(2)

АктивенMEO
NORAD 32278·ROCKET BODY·🇷🇺 Russia

Запущен Oct 26, 2007 с Baikonur Cosmodrome

Loading…

Ближайшие Пролёты (ближайшие 24 часа)

TLE

УстаревающийSource: Space-Track

Эпоха: Aug 31, 2026, 03:21 UTC

1 32278U 07052D   26243.14027367 -.00000025  00000-0  00000+0 0  9990
2 32278  65.5198 312.7606 0019195 196.4811 231.4378  2.13393667146748

Отслеживайте SL-12 R/B(2) в реальном времени с AllMySat

Download on the App Store